TimeMST,TemperatureF,Dew PointF,Humidity,Sea Level PressureIn,VisibilityMPH,Wind Direction,Wind SpeedMPH,Gust SpeedMPH,PrecipitationIn,Events,Conditions,WindDirDegrees,DateUTC
12:51 AM,66.9,37.9,34,29.84,10.0,East,6.9,-,N/A,,Scattered Clouds,90,2012-11-08 07:51:00
1:51 AM,66.9,37.9,34,29.84,10.0,East,6.9,-,N/A,,Mostly Cloudy,90,2012-11-08 08:51:00
2:51 AM,66.0,36.0,33,29.83,10.0,East,9.2,-,N/A,,Mostly Cloudy,80,2012-11-08 09:51:00
3:51 AM,64.9,35.1,33,29.83,10.0,East,6.9,-,N/A,,Scattered Clouds,90,2012-11-08 10:51:00
4:51 AM,64.0,34.0,33,29.83,10.0,East,6.9,-,N/A,,Scattered Clouds,90,2012-11-08 11:51:00
5:51 AM,63.0,35.1,35,29.83,10.0,East,6.9,-,N/A,,Scattered Clouds,100,2012-11-08 12:51:00
6:51 AM,62.1,35.1,37,29.85,10.0,East,5.8,-,N/A,,Scattered Clouds,100,2012-11-08 13:51:00
7:51 AM,64.0,34.0,33,29.87,10.0,East,8.1,-,N/A,,Scattered Clouds,80,2012-11-08 14:51:00
8:51 AM,68.0,36.0,31,29.88,10.0,East,5.8,-,N/A,,Scattered Clouds,100,2012-11-08 15:51:00
9:51 AM,73.0,33.1,23,29.89,10.0,Variable,3.5,-,N/A,,Scattered Clouds,0,2012-11-08 16:51:00
10:51 AM,75.0,34.0,22,29.89,10.0,Calm,Calm,-,N/A,,Partly Cloudy,0,2012-11-08 17:51:00
11:51 AM,79.0,30.9,17,29.87,10.0,Calm,Calm,-,N/A,,Partly Cloudy,0,2012-11-08 18:51:00
12:51 PM,81.0,28.9,15,29.83,10.0,Calm,Calm,-,N/A,,Scattered Clouds,0,2012-11-08 19:51:00
1:51 PM,86.0,28.9,13,29.80,10.0,SSW,3.5,-,N/A,,Scattered Clouds,210,2012-11-08 20:51:00
2:51 PM,84.0,28.9,14,29.80,10.0,Variable,4.6,-,N/A,,Mostly Cloudy,0,2012-11-08 21:51:00
3:51 PM,82.9,37.0,19,29.79,10.0,SW,6.9,-,0.00,Rain,Light Rain,230,2012-11-08 22:51:00
4:51 PM,81.0,33.1,18,29.78,10.0,Calm,Calm,-,0.00,,Mostly Cloudy,0,2012-11-08 23:51:00
5:51 PM,79.0,45.0,30,29.81,10.0,South,15.0,19.6,0.00,Rain,Light Rain,190,2012-11-09 00:51:00
6:51 PM,78.1,43.0,29,29.83,10.0,NNW,6.9,-,0.00,,Mostly Cloudy,330,2012-11-09 01:51:00
7:51 PM,73.9,48.0,40,29.82,10.0,North,10.4,19.6,0.00,,Mostly Cloudy,360,2012-11-09 02:51:00
8:51 PM,72.0,48.9,44,29.81,10.0,NNE,8.1,17.3,N/A,,Scattered Clouds,30,2012-11-09 03:51:00
9:51 PM,69.1,50.0,51,29.81,10.0,East,6.9,-,N/A,,Scattered Clouds,100,2012-11-09 04:51:00
10:51 PM,68.0,48.0,49,29.81,10.0,East,8.1,-,N/A,,Scattered Clouds,100,2012-11-09 05:51:00
11:51 PM,68.0,48.0,49,29.78,10.0,ESE,9.2,-,N/A,,Scattered Clouds,110,2012-11-09 06:51:00